| time (UTC) | temp C | wind direction | speed KPH | gust KPH | rain 1hr cm | rain 24hr cm | rain mn cm | humidity % | barometer mb |
| 20260508181630 | 17 | 235 | 3.2 | 9.7 | 0.00 | 0.00 | 0.00 | 30 | 989.2 |
| 20260508180127 | 16 | 28 | 3.2 | 6.4 | 0.00 | 0.00 | 0.00 | 28 | 989.3 |
| 20260508174624 | 15 | 265 | 6.4 | 12.9 | 0.00 | 0.00 | 0.00 | 27 | 989.5 |
| 20260508173119 | 15 | 251 | 4.8 | 11.3 | 0.00 | 0.00 | 0.00 | 29 | 989.8 |
| 20260508171615 | 16 | 286 | 8.0 | 16.1 | 0.00 | 0.00 | 0.00 | 26 | 989.8 |
| 20260508170112 | 15 | 260 | 11.3 | 16.1 | 0.00 | 0.00 | 0.00 | 29 | 990.1 |
| 20260508164608 | 16 | 264 | 3.2 | 4.8 | 0.00 | 0.00 | 0.00 | 30 | 990.3 |
| 20260508163105 | 16 | 181 | 1.6 | 6.4 | 0.00 | 0.00 | 0.00 | 32 | 990.6 |
| 20260508161602 | 16 | 202 | 3.2 | 4.8 | 0.00 | 0.00 | 0.00 | 32 | 990.7 |
| 20260508160100 | 15 | 195 | 1.6 | 6.4 | 0.00 | 0.00 | 0.00 | 34 | 990.8 |
| 20260508154557 | 15 | 208 | 3.2 | 4.8 | 0.00 | 0.00 | 0.00 | 35 | 990.7 |
| 20260508153053 | 15 | 235 | 3.2 | 3.2 | 0.00 | 0.00 | 0.00 | 36 | 990.7 |
| 20260508151548 | 15 | 240 | 1.6 | 6.4 | 0.00 | 0.00 | 0.00 | 42 | 990.9 |
| 20260508150044 | 15 | 164 | 1.6 | 4.8 | 0.00 | 0.00 | 0.00 | 44 | 991.0 |
| 20260508144541 | 15 | 191 | 0.0 | 6.4 | 0.00 | 0.00 | 0.00 | 46 | 991.2 |
| 20260508143038 | 15 | 195 | 3.2 | 4.8 | 0.00 | 0.00 | 0.00 | 53 | 991.0 |
| 20260508141534 | 13 | 174 | 3.2 | 4.8 | 0.00 | 0.00 | 0.00 | 59 | 991.1 |
| 20260508140031 | 12 | 116 | 4.8 | 4.8 | 0.00 | 0.00 | 0.00 | 65 | 991.2 |
| 20260508134526 | 12 | 216 | 4.8 | 4.8 | 0.00 | 0.00 | 0.00 | 67 | 991.4 |
| 20260508133023 | 12 | 176 | 3.2 | 9.7 | 0.00 | 0.00 | 0.00 | 70 | 991.3 |
| 20260508131518 | 11 | 183 | 1.6 | 3.2 | 0.00 | 0.00 | 0.00 | 70 | 991.4 |
| 20260508130014 | 10 | 189 | 3.2 | 4.8 | 0.00 | 0.00 | 0.00 | 72 | 991.7 |
| 20260508124512 | 10 | 191 | 1.6 | 4.8 | 0.00 | 0.00 | 0.00 | 70 | 991.5 |
| 20260508123010 | 10 | 180 | 0.0 | 1.6 | 0.00 | 0.00 | 0.00 | 73 | 991.7 |
| 20260508121508 | 7 | 183 | 0.0 | 1.6 | 0.00 | 0.00 | 0.00 | 78 | 991.6 |
| 20260508120006 | 6 | 158 | 0.0 | 0.0 | 0.00 | 0.00 | 0.00 | 78 | 991.2 |
| 20260508114503 | 6 | 156 | 1.6 | 1.6 | 0.00 | 0.00 | 0.00 | 79 | 991.2 |
| 20260508113000 | 6 | 161 | 0.0 | 0.0 | 0.00 | 0.00 | 0.00 | 79 | 991.0 |
| 20260508111456 | 3 | 167 | 0.0 | 0.0 | 0.00 | 0.00 | 0.00 | 91 | 990.8 |
| 20260508105955 | 1 | 171 | 0.0 | 0.0 | 0.00 | 0.00 | 0.00 | 93 | 990.9 |
| 20260508104453 | 0 | 171 | 0.0 | 0.0 | 0.00 | 0.00 | 0.00 | 93 | 991.1 |
| 20260508102949 | 1 | 162 | 0.0 | 0.0 | 0.00 | 0.00 | 0.00 | 92 | 990.7 |
| 20260508101448 | 1 | 163 | 0.0 | 0.0 | 0.00 | 0.00 | 0.00 | 92 | 990.7 |
| 20260508095945 | 1 | 163 | 0.0 | 0.0 | 0.00 | 0.00 | 0.00 | 91 | 991.0 |
| 20260508094442 | 1 | 163 | 0.0 | 0.0 | 0.00 | 0.00 | 0.00 | 90 | 990.9 |
| 20260508092939 | 1 | 172 | 0.0 | 0.0 | 0.00 | 0.00 | 0.00 | 89 | 991.2 |
| 20260508091438 | 2 | 180 | 0.0 | 0.0 | 0.00 | 0.00 | 0.00 | 89 | 991.1 |
| 20260508085935 | 2 | 183 | 0.0 | 0.0 | 0.00 | 0.00 | 0.00 | 88 | 991.1 |
| 20260508084431 | 2 | 174 | 0.0 | 1.6 | 0.00 | 0.00 | 0.00 | 88 | 991.0 |
| 20260508082926 | 2 | 176 | 0.0 | 0.0 | 0.00 | 0.00 | 0.00 | 88 | 990.8 |
| 20260508081424 | 2 | 176 | 0.0 | 0.0 | 0.00 | 0.00 | 0.00 | 87 | 990.9 |
| 20260508075920 | 2 | 180 | 0.0 | 0.0 | 0.00 | 0.00 | 0.00 | 88 | 991.1 |
| 20260508074418 | 2 | 176 | 0.0 | 0.0 | 0.00 | 0.00 | 0.00 | 87 | 991.1 |
| 20260508072916 | 2 | 165 | 0.0 | 0.0 | 0.00 | 0.00 | 0.00 | 87 | 991.1 |
| 20260508071413 | 2 | 191 | 0.0 | 0.0 | 0.00 | 0.00 | 0.00 | 85 | 991.3 |
| 20260508065912 | 3 | 161 | 0.0 | 0.0 | 0.00 | 0.00 | 0.00 | 84 | 991.6 |
| 20260508064410 | 3 | 162 | 0.0 | 0.0 | 0.00 | 0.00 | 0.00 | 82 | 991.7 |
| 20260508062908 | 3 | 162 | 0.0 | 0.0 | 0.00 | 0.00 | 0.00 | 83 | 991.9 |
| 20260508061407 | 3 | 162 | 0.0 | 0.0 | 0.00 | 0.00 | 0.00 | 81 | 991.7 |
| 20260508055906 | 3 | 163 | 0.0 | 0.0 | 0.00 | 0.00 | 0.00 | 82 | 991.8 |
| 20260508054404 | 3 | 174 | 0.0 | 0.0 | 0.00 | 0.00 | 0.00 | 85 | 992.0 |
| 20260508052901 | 3 | 194 | 0.0 | 0.0 | 0.00 | 0.00 | 0.00 | 86 | 991.8 |
| 20260508051356 | 3 | 198 | 0.0 | 0.0 | 0.00 | 0.00 | 0.00 | 85 | 991.8 |
| 20260508045851 | 3 | 124 | 1.6 | 3.2 | 0.00 | 0.00 | 0.00 | 81 | 992.0 |
| 20260508044348 | 3 | 192 | 0.0 | 0.0 | 0.00 | 0.00 | 0.00 | 81 | 991.9 |
| 20260508042844 | 4 | 164 | 0.0 | 0.0 | 0.00 | 0.00 | 0.00 | 80 | 991.6 |
| 20260508041341 | 4 | 172 | 0.0 | 0.0 | 0.00 | 0.00 | 0.00 | 79 | 991.6 |
| 20260508035838 | 5 | 172 | 0.0 | 0.0 | 0.00 | 0.00 | 0.00 | 78 | 991.5 |
| 20260508034335 | 5 | 155 | 0.0 | 0.0 | 0.00 | 0.00 | 0.00 | 77 | 991.4 |
| 20260508032833 | 5 | 160 | 0.0 | 0.0 | 0.00 | 0.00 | 0.00 | 75 | 991.5 |
| 20260508031330 | 5 | 191 | 0.0 | 0.0 | 0.00 | 0.00 | 0.00 | 76 | 991.5 |
| 20260508025826 | 6 | 191 | 0.0 | 0.0 | 0.00 | 0.00 | 0.00 | 74 | 991.5 |
| 20260508024322 | 6 | 192 | 0.0 | 0.0 | 0.00 | 0.00 | 0.00 | 73 | 991.5 |
| 20260508022818 | 6 | 184 | 0.0 | 0.0 | 0.00 | 0.00 | 0.00 | 72 | 991.5 |
| 20260508021313 | 6 | 185 | 0.0 | 0.0 | 0.00 | 0.00 | 0.00 | 72 | 991.2 |
| 20260508015810 | 6 | 168 | 0.0 | 0.0 | 0.00 | 0.00 | 0.00 | 70 | 991.2 |
| 20260508014307 | 7 | 167 | 0.0 | 0.0 | 0.00 | 0.00 | 0.00 | 68 | 991.0 |
| 20260508012803 | 7 | 198 | 0.0 | 0.0 | 0.00 | 0.00 | 0.00 | 63 | 990.9 |
| 20260508011301 | 8 | 165 | 0.0 | 0.0 | 0.00 | 0.00 | 0.00 | 62 | 990.6 |
| 20260508005758 | 10 | 195 | 0.0 | 3.2 | 0.00 | 0.00 | 0.00 | 57 | 990.7 |
| 20260508004258 | 10 | 209 | 0.0 | 1.6 | 0.00 | 0.00 | 0.00 | 52 | 990.5 |
| 20260508002754 | 11 | 197 | 0.0 | 3.2 | 0.00 | 0.00 | 0.00 | 49 | 990.3 |
| 20260508001249 | 11 | 216 | 3.2 | 4.8 | 0.00 | 0.00 | 0.00 | 47 | 990.5 |
| 20260507235745 | 12 | 263 | 1.6 | 3.2 | 0.00 | 0.00 | 0.00 | 46 | 990.3 |
| 20260507234242 | 12 | 264 | 8.0 | 11.3 | 0.00 | 0.00 | 0.00 | 44 | 990.4 |
| 20260507232739 | 12 | 273 | 6.4 | 11.3 | 0.00 | 0.00 | 0.00 | 44 | 990.6 |
| 20260507231235 | 12 | 266 | 6.4 | 9.7 | 0.00 | 0.00 | 0.00 | 42 | 990.7 |
| 20260507225734 | 12 | 197 | 3.2 | 9.7 | 0.00 | 0.00 | 0.00 | 44 | 990.7 |
| 20260507224229 | 12 | 167 | 6.4 | 11.3 | 0.00 | 0.00 | 0.00 | 44 | 991.2 |
| 20260507222725 | 11 | 203 | 1.6 | 6.4 | 0.00 | 0.00 | 0.00 | 46 | 991.1 |
| 20260507221220 | 11 | 259 | 3.2 | 9.7 | 0.00 | 0.00 | 0.00 | 44 | 991.2 |
| 20260507215716 | 12 | 298 | 3.2 | 9.7 | 0.00 | 0.00 | 0.00 | 43 | 991.2 |
| 20260507214214 | 11 | 285 | 3.2 | 12.9 | 0.00 | 0.00 | 0.00 | 44 | 991.2 |
| 20260507212709 | 12 | 153 | 8.0 | 12.9 | 0.00 | 0.00 | 0.00 | 42 | 991.3 |
| 20260507211209 | 12 | 230 | 8.0 | 14.5 | 0.00 | 0.00 | 0.00 | 42 | 991.3 |
| 20260507205706 | 13 | 149 | 4.8 | 9.7 | 0.00 | 0.00 | 0.00 | 43 | 991.5 |
| 20260507204203 | 12 | 230 | 3.2 | 4.8 | 0.00 | 0.00 | 0.00 | 45 | 991.7 |
| 20260507202659 | 11 | 226 | 4.8 | 11.3 | 0.00 | 0.00 | 0.00 | 43 | 992.1 |
| 20260507201159 | 11 | 267 | 9.7 | 12.9 | 0.00 | 0.00 | 0.00 | 43 | 992.4 |
| 20260507195654 | 11 | 275 | 4.8 | 9.7 | 0.00 | 0.00 | 0.00 | 46 | 992.8 |
| 20260507194150 | 10 | 294 | 6.4 | 12.9 | 0.00 | 0.00 | 0.00 | 45 | 992.8 |
| 20260507192646 | 11 | 209 | 6.4 | 14.5 | 0.00 | 0.00 | 0.00 | 46 | 993.0 |
| 20260507191142 | 10 | 246 | 3.2 | 11.3 | 0.00 | 0.00 | 0.00 | 47 | 993.1 |
| 20260507185641 | 10 | 234 | 9.7 | 12.9 | 0.00 | 0.00 | 0.00 | 47 | 993.0 |
| 20260507184139 | 10 | 270 | 14.5 | 16.1 | 0.00 | 0.00 | 0.00 | 46 | 993.2 |